User: anonymous   Login
Location: Unspecified
(0.0000°N, 0.0000°E)
Time: 22:32:47
(UTC+00:00)
Language:

Optus B1 - Orbit

View from above orbital plane
View from above orbital plane
View from above satellite
View from above satellite

Ground track
Ground track

The orbit data is extracted from the following two-line orbital elements,

1 22087U 92054A   18109.80527508 -.00000121 +00000-0 +00000-0 0  9998
2 22087 009.1177 043.5967 0007572 021.2495 354.7618 00.99203257105146
Epoch (UTC): 19 April 2018 19:19:35
Eccentricity: 0.0007572
inclination: 9.1177°
perigee height: 36056 km
apogee height: 36120 km
right ascension of ascending node: 43.5967°
argument of perigee: 21.2495°
revolutions per day: 0.99203257
mean anomaly at epoch: 354.7618°
orbit number at epoch: 10514

The dashed part of the orbit path shows where the satellite is in the earth's shadow,  

DLR